Terminal Aerodrome Forecast
Issued by NWS Billings, MT

Home | Current Version | Previous Version | Text Only | Print | Product List | Glossary Off
Versions: 1 2 3 4 5 6 7 8 9 10 11 12 13 14 15

000
FTUS45 KBYZ 140520
TAFMLS
TAF
KMLS 140520Z 1406/1506 28008KT P6SM SCT060
     FM141800 28010KT P6SM SCT250
     FM150200 17008KT P6SM FEW110 BKN250=

USA.gov is the U.S. government's official web portal to all federal, state and local government web resources and services.